Location: Brivio
(45.7333°N, 9.4500°E)
Time: 16:14:34
(UTC+00:00)

H-2A R/B - Pass Details

Date: 18 October 2019
Orbit: 734 x 837 km, 98.3° (Epoch: 14 November)

Event Time Altitude Azimuth Distance (km) Brightness Sun altitude
Exits shadow 20:16:22 26° 297° (WNW) 1,574 4.0 -38.8°
Drops below altitude 10° 20:19:29 10° 327° (NNW) 2,438 5.2 -39.2°
Sets 20:22:10 0° 338° (NNW) 3,386 6.0 -39.6°
